Starlink 31298

operational
NORAD ID: 59167 Int'l Des: 2024-044 Owner: SPXS Country: US Constellation: starlink
LEOCIRCULAR

Über Starlink 31298

Beschreibung wird geladen...

Live-Position

3D-Globus wird geladen...

Nächste Überflüge

Höhenverlauf

Altitude vs Time

uPlot chart will show altitude changes over time

Zweizeiliger Elementsatz

1 59167U 24044R 25304.21056027 .00002102 00000-0 85886-4 0 9993
2 59167 43.0021 118.2397 0001450 267.6301 92.4385 15.27584264 93766
Epoch: 31. Okt. 2025 • Age: 6 hours

Aktueller Status

Höhe 495.4 km
Geschwindigkeit 7.62 km/s
Subsatellitenpunkt -43.13°S, 174.59°W
Startdatum 4. März 2024
Alter 1.6 years
Typ internet

Technische Details

Klassifizierung Payload
Masse 730.00 kg
Trockenmasse 700.00 kg
Gesamtmasse 730.00 kg
Länge 0.30 m
Durchmesser 4.10 m
Spannweite 29.00 m
Form Box + pan
Hersteller SPXS
Bus-Typ Starlink V2M
Phasenstatus In Orbit
Besitzer/Staat SPXS/US

Große Konstellationen

Loading constellations...